Home > Weather > Mehamn > Past weeks

Flag for Norway Past Weather in Mehamn, Norway — Yesterday and Last 2 Weeks

Now
45 °F

Quite cool.


Feels Like: 41 °F
Forecast: 47 / 66 °F
Wind: 7 mph from Northwest

Location: Sletnes Fyr

Current Time: Jun 26, 2016 at 4:58:51 AM

Latest Report: Jun 26, 2016 at 4:00 AM


Visibility: N/A

Pressure: 30.07 "Hg

Humidity: 94%

Dew Point: 43 °F

Location of MehamnLocation

Past Weather in Mehamn — Graph

°F

Mehamn Temperature Yesterday

Maximum temperature yesterday: 49 °F (at 12:00 PM)
Minimum temperature yesterday: 46 °F (at 2:00 AM)
Average temperature yesterday: 47 °F

High & Low Weather Summary for the Past Weeks

 TemperatureHumidityPressure
High60 °F (Jun 16, 1:00 PM)98% (Jun 25, 8:00 PM)30.09 "Hg (Jun 25, 8:00 PM)
Low40 °F (Jun 11, 5:00 AM)60% (Jun 15, 3:00 PM)29.61 "Hg (Jun 14, 9:00 PM)
Average46 °F85%29.88 "Hg
* Reported Jun 11 3:00 AM — Jun 26 3:00 AM, Mehamn, Weather by CustomWeather, © 2016

Note: Actual official high and low records may vary slightly from our data, if they occured in-between our weather recording intervals... More about our weather records

Advertising

Mehamn Weather History for the Previous 24 Hours

Scroll right to see more
 ConditionsComfort  
Time TempWeatherWind HumidityBarometerVisibility
3:00 AM
Sun, Jun 26
44 °FQuite cool.8 mph96%30.06 "HgN/A
2:00 AM45 °FFog.7 mph98%30.04 "Hg1 mi
1:00 AM45 °FCool.8 mph98%30.03 "HgN/A
12:00 AM46 °FCool.8 mph98%30.01 "HgN/A
11:00 PM
Sat, Jun 25
46 °FCool.7 mph98%30.01 "HgN/A
10:00 PM46 °FCool.6 mph98%30.00 "HgN/A
9:00 PM46 °FCool.8 mph98%29.99 "HgN/A
8:00 PM46 °FFog.9 mph98%29.98 "Hg1 mi
7:00 PM46 °FCool.8 mph97%29.98 "HgN/A
6:00 PM47 °FCool.8 mph97%29.98 "HgN/A
5:00 PM47 °FCool.6 mph96%29.98 "HgN/A
4:00 PM47 °FCool.8 mph95%29.97 "HgN/A
3:00 PM49 °FCool.9 mph89%29.96 "HgN/A
2:00 PM49 °FLow clouds.8 mph88%29.96 "Hg34 mi
1:00 PM49 °FCool.6 mph86%29.96 "HgN/A
12:00 PM49 °FCool.6 mph88%29.96 "HgN/A
11:00 AM48 °FCool.7 mph91%29.96 "HgN/A
10:00 AM47 °FCool.8 mph93%29.96 "HgN/A
9:00 AM47 °FCool.8 mph95%29.96 "HgN/A
8:00 AM47 °FRain. Low clouds.6 mph95%29.95 "Hg9 mi
7:00 AM46 °FCool.5 mph96%29.95 "HgN/A
6:00 AM47 °FCool.7 mph95%29.96 "HgN/A
5:00 AM47 °FCool.7 mph94%29.95 "HgN/A
4:00 AM47 °FCool.6 mph95%29.95 "HgN/A
Weather by CustomWeather, © 2016

See weather overviewHow to use our weather pages